Hourly Data Report for October 19, 2014

All times are specified in Local Standard Time (LST). Add 1 hour to adjust for Daylight Saving Time where and when it is observed.

FREDERICTON
NEW BRUNSWICK

45°52'08.000" N
66°32'14.000" W
20.70 m
8101505
71700
YFC

Download Data

Hourly Data (October 2014)
Hourly Data Report for October 19, 2014
Temp Definition
°C
Dew Point Temp Definition
°C
Rel Hum Definition
%
Wind Dir Definition
10's deg

Wind Spd Definition
km/h
Visibility Definition
km
Stn Press Definition
kPa
Hmdx Definition


Wind Chill Definition


Weather Definition


TIME
00:00 Legend Double Dagger 13.2 12.6 96 14 9 12.9 99.44     Rain
01:00 Legend Double Dagger 12.9 12.6 98 18 13 11.3 99.44     LegendNANA
02:00 Legend Double Dagger 12.7 12.4 98 19 13 16.1 99.46     LegendNANA
03:00 Legend Double Dagger 12.0 11.7 98 19 11 14.5 99.47     LegendNANA
04:00 Legend Double Dagger 11.7 11.6 99 19 9 11.3 99.51     LegendNANA
05:00 Legend Double Dagger 10.4 10.3 99 21 9 3.2 99.56     Fog
06:00 Legend Double Dagger 10.7 10.7 100 22 11 9.7 99.62     Fog
07:00 Legend Double Dagger 9.1 8.0 93 28 21 16.1 99.81     LegendNANA
08:00 Legend Double Dagger 8.2 6.2 87 30 15 16.1 99.96     LegendNANA
09:00 Legend Double Dagger 8.3 6.5 88 26 8 16.1 100.07     LegendNANA
10:00 Legend Double Dagger 8.9 5.9 81 31 17 16.1 100.15     LegendNANA
11:00 Legend Double Dagger 10.3 3.2 61 30 21 16.1 100.17     LegendNANA
12:00 Legend Double Dagger 10.1 2.3 58 29 17 16.1 100.17     LegendNANA
13:00 Legend Double Dagger 10.8 1.8 53 29 21 16.1 100.09     LegendNANA
14:00 Legend Double Dagger 10.2 1.9 56 28 13 16.1 100.15     LegendNANA
15:00 Legend Double Dagger 9.9 2.0 58 28 11 16.1 100.25     LegendNANA
16:00 Legend Double Dagger 9.3 1.8 59 27 9 16.1 100.28     LegendNANA
17:00 Legend Double Dagger 8.4 2.0 64 28 11 16.1 100.32     LegendNANA
18:00 Legend Double Dagger 7.6 1.6 66 30 15 16.1 100.35     LegendNANA
19:00 Legend Double Dagger 7.1 1.4 67 29 13 16.1 100.37     LegendNANA
20:00 Legend Double Dagger 6.6 1.3 69 31 17 16.1 100.36     LegendNANA
21:00 Legend Double Dagger 6.3 0.9 68 31 13 16.1 100.38     LegendNANA
22:00 Legend Double Dagger 6.1 0.3 66 31 11 16.1 100.38     LegendNANA
23:00 Legend Double Dagger 5.8 -0.7 63 30 15 16.1 100.33     LegendNANA

Notes on Data Quality.

Legend

  • E = Estimated
  • M = Missing
  • NA = Not Available
  • ‡ = Partner data that is not subject to review by the National Climate Archives
Date modified: